Track NAVSTAR 70 (USA 251) now! NAVSTAR 70 (USA 251) is classified as:
1 39741U 14026A 25021.92301626 -.00000087 00000-0 00000-0 0 9992 2 39741 56.6831 351.3885 0036218 316.6734 43.0435 2.00552966 78287